sat.trackr.live / text

‹ back to catalog

STARLINK-36528

NORAD 67458 · 2026-008P

PAYLOAD ACTIVE UNKNOWN

§ Identity

Operator
Country
US
Launch date
2026-01-14
Launch site
AFETR
Launch vehicle
Mass (kg)
RCS (m²)

Purposes: comms

External: N2YO · Heavens-Above · Gunter

§ Orbital elements

Epoch: 2026-05-24T23:25:10.625088Z

Period
94.26 min
Inclination
43.0005°
Eccentricity
0.0001333
Mean motion
15.27613023 rev/d
Perigee alt
482.0 km
Apogee alt
483.9 km
Semi-major
6,861.1 km
B*
6.2789e-4
RAAN
134.0050°
Arg perigee
276.3941°
Mean anomaly
83.6759°
Rev number
2,124

§ Raw data

STARLINK-365281 67458U 26008P   26144.97581742  .00017073  00000+0  62789-3 0  99982 67458  43.0005 134.0050 0001333 276.3941  83.6759 15.27613023 21246

JSON: /api/v1/satellites/67458 · /tle

For live sub-satellite position, see the globe view (requires WebGL).

§ Visibility from observer

Set your observer location to see the next 7 days of passes ≥ 10°. The values pass through the URL so the page stays shareable.

No JS? Fill the form by hand. The geolocation button needs JavaScript.